Montana Department of Transportation

Main Content

Accidents and Incidents Report

Hourly Weather Roundup

ASUS45 KTFX 190410

RWRMT 

MONTANA REGIONAL WEATHER ROUNDUP

NATIONAL WEATHER SERVICE GREAT FALLS MT

1000 PM MDT WED JUL 18 2018



NOTE: "FAIR" INDICATES FEW OR NO CLOUDS BELOW 12000 FEET WITH NO

SIGNIFICANT WEATHER AND/OR OBSTRUCTIONS TO VISIBILITY.



MTZ001.007-043-190500-

WEST OF THE DIVIDE

  

CITY           SKY/WX    TMP DP  RH WIND       PRES   REMARKS

KALISPELL      FAIR      70  43  37 S6        29.99R                  

MISSOULA       FAIR      70  38  31 N7        30.03R                  

BUTTE          FAIR      72  30  21 NW9       30.15R                  

MULLAN PASS    FAIR      62  31  31 VRB5      30.21S                  

ANACONDA         N/A     70  30  23 E6        30.11R                  

DEER LODGE       N/A     68  28  22 W9        30.12R                  

LIBBY            N/A     73  41  31 NE5       29.97R                  

RONAN            N/A     73  37  27 W5        30.03R                  

--------------------------------



MTZ008-052.055-190500-

SOUTHWEST MONTANA

  

CITY           SKY/WX    TMP DP  RH WIND       PRES   REMARKS

BOZEMAN        FAIR      64  54  69 E3        30.06R                  

DILLON         FAIR      67  40  37 E8        30.09R                  

ENNIS          PTCLDY    66  46  48 N7        30.15R                  

W YELLOWSTONE  FAIR      52  52 100 CALM      30.23R                  

--------------------------------



MTZ009-010-012-014-046-048-049-054-190500-

EAST SLOPES AND CENTRAL MONTANA

  

CITY           SKY/WX    TMP DP  RH WIND       PRES   REMARKS

CUT BANK       FAIR      71  53  52 N13       30.02R                  

GREAT FALLS    FAIR      73  44  35 N7        29.98R                  

MALMSTROM AFB  FAIR      76  45  33 N5        29.97R                  

HELENA         FAIR      77  33  20 W6        30.03R                  

BOWMANS CRNR   FAIR      69  33  25 NW12      30.03R                  

CHOTEAU          N/A     70  32  24 NW8       30.03R                  

FAIRFIELD      FAIR      69  33  27 NW3       30.01R                  

RAYNESFORD     FAIR      66  45  45 CALM      30.01R                  

ULM            FAIR      67  36  31 CALM      29.99R                  

WHITE SULPHUR    N/A     59  39  47 CALM      30.08R                  

--------------------------------



MTZ011-013-016-021-045-047-050-051-190500-

NORTH CENTRAL MONTANA

  

CITY           SKY/WX    TMP DP  RH WIND       PRES   REMARKS

HAVRE          FAIR      79  51  37 N7        29.89R                  

LEWISTOWN      FAIR      67  45  45 S12       29.99R                  

N BAR RANCH    FAIR      70  39  32 CALM      30.04R                  

CHINOOK          N/A     81  54  39 N3        29.88R                  

DENTON         FAIR      68  48  48 NW12      29.93R                  

GEYSER         FAIR      66  43  44 SW10      30.00R                  

GRASS RANGE    FAIR      70  39  32 SW13      29.94R                  

JUDITH GAP     FAIR      61  45  54 CALM      30.04R                  

ROY            FAIR      76  44  32 W12       29.93R                  

STANFORD       FAIR      65  41  41 W7        30.02R                  

WINIFRED       FAIR      72  38  29 N7        29.95R                  

--------------------------------



MTZ017.020-022.027-061-062-190500-

NORTHEAST MONTANA

  

CITY           SKY/WX    TMP DP  RH WIND       PRES   REMARKS

GLASGOW        FAIR      78  49  35 SE14      29.83R                  

GLENDIVE       FAIR      72  55  55 S10       29.92R                  

JORDAN           N/A     79  56  45 SE9       29.85R                  

MALTA          CLEAR     81  50  34 NW13G20   29.81R                  

SIDNEY         FAIR      73  58  59 VRB3      29.91R                  

WOLF POINT     FAIR      76  57  51 E7        29.86R                  

--------------------------------



MTZ028.42-056.058-190500-

SOUTHCENTRAL AND SOUTHEAST MONTANA

  

CITY           SKY/WX    TMP DP  RH WIND       PRES   REMARKS

BAKER          FAIR      63  58  83 SE10      29.97SBILLINGS       FAIR      77  47  34 SW16      29.97R                  

LIVINGSTON     FAIR      70  48  45 W8        30.05R                  

MILES CITY     FAIR      77  55  46 SE10      29.89R                  

BIG TIMBER     CLEAR     72  43  35 W12       30.04R                  

FORSYTH          N/A     77  57  50 CALM      29.88R                  

HARLOWTON      FAIR      66  46  48 N10       30.02R                  

--------------------------------



REGIONAL REPORTS...DAKOTAS

  

CITY           SKY/WX    TMP DP  RH WIND       PRES   REMARKS

WILLISTON      MOCLDY    72  56  57 N6        29.90F                  

MINOT          FAIR      76  64  66 S7        29.86R                  

DICKINSON      FAIR      62  60  93 SW8       29.92F                  

BEACH          FAIR      63  59  88 S9        29.98S                  

CROSBY         FAIR      73  52  46 SW17G24   29.87S                  

TIOGA          FAIR      72  64  78 W20       29.91R                  

WATFORD CITY   FAIR      72  59  64 N14       29.92R                  

BISMARCK       MOCLDY    70  66  87 CALM      29.90S                  

GRAND FORKS    MOCLDY    70  68  93 SE6       29.86F                  

FARGO          FAIR      74  66  76 SE8       29.87F                  

BUFFALO SD       N/A     64  57  78 NE8       29.93R                  

RAPID CITY     FAIR      66  59  78 N9        29.98R                  

--------------------------------



REGIONAL REPORTS...WYOMING/IDAHO/WASHINGTON

  

CITY           SKY/WX    TMP DP  RH WIND       PRES   REMARKS

GILLETTE         N/A     67  56  67 SW5       30.05R                  

SHERIDAN       FAIR      73  47  39 SW12      30.02F                  

BUFFALO WY     FAIR      71  44  37 W12       30.12S                  

CODY           FAIR      72  44  36 W7G16     30.14F                  

YELLOWSTONE LA   N/A     48  47  96 NW3       30.35R                  

IDAHO FALLS    FAIR      77  39  25 S8        30.04R                  

SALMON         FAIR      77  40  26 N6        30.02R                  

BOISE          FAIR      86  33  15 NW5       29.96R                  

SPOKANE        FAIR      82  37  20 SW12      29.97S                  

--------------------------------



REGIONAL REPORTS...ALBERTA

  

CITY           SKY/WX    TMP DP  RH WIND       PRES   REMARKS

CALGARY        PTCLDY    63  54  72 SW6       30.02R                  

CARDSTON         N/A     64  54  68 W3          N/A                   

FORT MCMURRAY  CLOUDY    64  61  88 CALM      29.88R                  

HIGH LEVEL     MOCLDY    61  59  94 VRB2      29.92R                  

LETHBRIDGE     TSTM      61  55  82 NE9G22    30.00F                  

LLOYDMINSTER   MOCLDY    66  61  82 N5        29.93R                  

MEDICINE HAT   MOCLDY    79  54  41 N7        29.94R                  

PEACE RIVER    PTCLDY    64  52  63 N15G28    29.95R                  

PINCHER CREEK  MOCLDY    63  52  67 NE16      30.08R                  

RAYMOND          N/A     63  54  72 NE22        N/A                   

WATERTON GATE    N/A     61  54  77 SE3         N/A                   

--------------------------------



REGIONAL REPORTS...SASKATCHEWAN

  

CITY           SKY/WX    TMP DP  RH WIND       PRES   REMARKS

CORONACH         N/A     66  59  77 NW12        N/A                   

CYPRESS HILLS    N/A     66  57  72 N8          N/A                   

ESTEVAN        MOCLDY    68  57  68 SW7       29.85R                  

PRINCE ALBERT  MOCLDY    64  59  82 N7        29.87R                  

REGINA         CLOUDY    72  61  68 S9        29.80R                  

SASKATOON      CLOUDY    66  63  88 N5        29.87R                  

SWIFT CURRENT  PTCLDY    70  61  73 N12       29.89R                  

VAL MARIE        N/A     64  43  45 E6          N/A                   

--------------------------------